This is the latest recevied weather packets stored in our database for station/object K5MGY. If no packets are shown the sender has not sent any weather packets the latest 10 day(s).
| Time | Temp. | Humidity | Pressure | Rain* | Wind** | Luminosity | Snow |
|---|---|---|---|---|---|---|---|
| 1776995860 | 24.44° C | 74% | 1030 hPa | 0 mm | - | 0 W/m² | - |
| 1776995560 | 24.44° C | 74% | 1030.1 hPa | 0 mm | - | 0 W/m² | - |
| 1776995255 | 24.44° C | 74% | 1030.1 hPa | 0 mm | - | 0 W/m² | - |
| 1776994953 | 25° C | 73% | 1030.1 hPa | 0 mm | - | 0 W/m² | - |
| 1776994647 | 25° C | 73% | 1029.9 hPa | 0 mm | - | 0 W/m² | - |
| 1776994343 | 25° C | 73% | 1030.1 hPa | 0 mm | - | 0 W/m² | - |
| 1776994040 | 25° C | 73% | 1030.1 hPa | 0 mm | - | 0 W/m² | - |
| 1776993738 | 25° C | 73% | 1030 hPa | 0 mm | - | 0 W/m² | - |
| 1776993435 | 25° C | 73% | 1030.1 hPa | 0 mm | - | 0 W/m² | - |
| 1776993132 | 25° C | 73% | 1030 hPa | 0 mm | - | 0 W/m² | - |
| 1776992829 | 25° C | 72% | 1029.9 hPa | 0 mm | - | 1 W/m² | - |
| 1776992525 | 25° C | 72% | 1029.8 hPa | 0 mm | - | 1 W/m² | - |
| 1776992223 | 25° C | 72% | 1029.7 hPa | 0 mm | - | 3 W/m² | - |
| 1776991919 | 25.56° C | 71% | 1030 hPa | 0 mm | - | 4 W/m² | - |
| 1776991616 | 25.56° C | 71% | 1029.8 hPa | 0 mm | - | 7 W/m² | - |
| 1776991311 | 25.56° C | 70% | 1030 hPa | 0 mm | - | 12 W/m² | - |
| 1776991008 | 25.56° C | 70% | 1030 hPa | 0 mm | - | 14 W/m² | - |
| 1776990704 | 25.56° C | 70% | 1029.9 hPa | 0 mm | - | 13 W/m² | - |
| 1776990403 | 25.56° C | 70% | 1029.9 hPa | 0 mm | - | 19 W/m² | - |
| 1776990097 | 25.56° C | 70% | 1029.8 hPa | 0 mm | - | 19 W/m² | - |
| 1776989793 | 26.11° C | 70% | 1029.9 hPa | 0 mm | - | 19 W/m² | - |
| 1776989489 | 26.11° C | 70% | 1030 hPa | 0 mm | - | 28 W/m² | - |
| 1776989186 | 26.11° C | 69% | 1030 hPa | 0 mm | - | 29 W/m² | - |
| 1776988882 | 26.11° C | 69% | 1030 hPa | 0 mm | - | 31 W/m² | - |
* Rain latest hour (hover to see other rain measurements)
** Current wind speed in m/s (hover to see current wind gust speed)